Location: Carson
(33.8314°N, 118.2820°W)
Time: 13:39:24
(UTC+00:00)

Cosmos 1862 - Pass Details

Date: 23 November 2020
Orbit: 537 x 556 km, 82.5° (Epoch: 21 January)

Event Time Altitude Azimuth Distance (km) Brightness Sun altitude
Rises 13:47:35 0° 174° (S) 2,710 7.2 -9.7°
Reaches altitude 10° 13:49:46 10° 168° (SSE) 1,823 6.4 -9.3°
Maximum altitude 13:53:39 50° 93° (E) 713 4.4 -8.5°
Drops below altitude 10° 13:57:35 10° 18° (NNE) 1,843 6.0 -7.7°
Sets 13:59:48 0° 13° (NNE) 2,743 6.8 -7.3°
